QPF
0.01 0.02 0.02 0.06 0.05 0.06 0.06 0.02 0.00 0.00 0.00 0.00 0.00 0.00 0.00 0.00 0.00 0.00 0.00 0.00 0.00 0.00 0.00 0.00 0.00 0.01 0.00 0.01 0.00 0.01 0.01 0.01 0.00 0.00 0.00 0.00 0.00 0.00 0.00 0.00 0.00 0.00 0.00
0.00 0.00 0.00 0.00 0.00 0.00 0.00 0.00 0.00 0.00 0.00 0.00 0.00 0.00 0.00 0.00 0.00 0.00 0.00 0.00 0.00 0.00 0.00 0.00 0.00 0.00 0.00 0.00 0.01 0.01 0.01 0.01 0.00 0.00 0.00 0.00 0.00 0.00 0.00 0.00 0.00 0.00 0.00
0.00 0.00 0.00 0.00 0.00 0.00 0.00 0.00 0.00 0.00 0.00 0.00 0.00 0.00 0.00 0.00 0.00 0.00 0.00 0.00 0.00 0.00 0.00 0.00 0.00 0.00 0.00 0.00 0.00 0.00 0.00 0.00 0.00 0.00 0.00 0.00 0.00 0.00 0.00 0.00 0.00 0.00 0.00
0.00 0.00 0.00 0.00 0.00 0.00 0.00 0.00 0.00 0.00 0.00 0.00 0.00 0.00 0.00 0.00 0.00 0.00 0.00 0.00 0.00 0.00 0.00 0.00 0.00 0.00 0.00 0.00 0.00 0.00 0.00 0.00 0.00 0.00 0.00 0.00 0.00 0.00 0.00 0.00 0.00 0.00 0.00
0.00 0.00 0.00 0.00 0.00 0.00 0.00 0.00 0.00 0.00 0.00 0.00 0.00 0.00 0.00 0.00 0.00 0.00 0.00 0.00 0.00 0.00 0.00 0.00 0.00 0.00 0.00 0.00 0.00 0.00 0.00 0.00 0.00 0.00 0.00 0.00 0.00 0.00 0.00 0.00 0.00 0.00 0.00
0.00 0.00 0.00 0.00 0.00 0.00 0.00 0.00 0.00 0.00 0.00 0.00 0.00 0.00 0.00 0.00 0.00 0.00 0.00 0.00 0.00 0.00 0.00 0.00 0.00 0.00 0.00 0.00 0.00 0.00 0.00 0.00 0.00 0.00 0.00 0.00 0.00 0.00 0.00 0.00 0.00 0.00 0.00
0.00 0.00 0.00 0.00 0.00 0.00 0.00 0.00 0.01 0.02 0.00 0.01 0.00 0.00 0.00 0.00 0.00 0.00 0.00 0.00 0.00 0.00 0.00 0.00 0.00 0.00 0.00 0.00 0.00 0.00 0.00 0.00 0.00 0.00 0.00 0.00 0.00 0.00 0.00 0.00 0.00 0.01 0.00
0.00 0.00 0.00 0.00 0.00 0.00 0.00 0.00 0.10 0.12 0.09 0.05 0.02 0.02 0.00 0.00 0.00 0.00 0.00 0.00 0.00 0.00 0.00 0.00 0.00 0.00 0.00 0.00 0.00 0.00 0.00 0.00 0.00 0.00 0.00 0.00 0.00 0.00 0.00 0.00 0.00 0.00 0.00
0.00 0.00 0.00 0.00 0.01 0.01 0.00 0.00 0.02 0.05 0.04 0.11 0.05 0.08 0.01 0.00 0.00 0.00 0.00 0.00 0.00 0.00 0.00 0.00 0.00 0.00 0.00 0.00 0.00 0.00 0.00 0.00 0.00 0.00 0.00 0.00 0.00 0.00 0.00 0.00 0.00 0.01 0.00
0.00 0.00 0.01 0.01 0.03 0.01 0.00 0.00 0.00 0.00 0.00 0.01 0.01 0.01 0.01 0.00 0.00 0.00 0.00 0.00 0.00 0.00 0.00 0.00 0.00 0.00 0.00 0.00 0.00 0.00 0.00 0.00 0.00 0.00 0.00 0.00 0.00 0.00 0.00 0.00 0.00 0.00 0.00
0.00 0.00 0.00 0.00 0.03 0.01 0.00 0.00 0.00 0.00 0.00 0.01 0.00 0.00 0.00 0.01 0.00 0.00 0.00 0.00 0.00 0.00 0.00 0.00 0.00 0.00 0.00 0.00 0.00 0.00 0.00 0.00 0.00 0.00 0.00 0.00 0.00 0.00 0.00 0.00 0.00 0.00 0.00
0.00 0.01 0.00 0.01 0.01 0.01 0.05 0.05 0.04 0.01 0.00 0.03 0.05 0.03 0.02 0.01 0.01 0.00 0.00 0.00 0.00 0.00 0.00 0.00 0.00 0.00 0.00 0.00 0.00 0.00 0.00 0.00 0.00 0.00 0.00 0.00 0.00 0.00 0.00 0.00 0.00 0.00 0.00
0.03 0.06 0.01 0.01 0.01 0.02 0.02 0.01 0.06 0.04 0.01 0.00 0.01 0.01 0.02 0.01 0.01 0.00 0.00 0.00 0.00 0.00 0.00 0.00 0.00 0.00 0.00 0.00 0.00 0.00 0.00 0.00 0.00 0.00 0.00 0.00 0.00 0.00 0.00 0.00 0.00 0.00 0.00
0.09 0.08 0.09 0.04 0.02 0.00 0.01 0.02 0.03 0.02 0.02 0.00 0.00 0.00 0.02 0.02 0.01 0.01 0.00 0.00 0.00 0.00 0.00 0.00 0.00 0.00 0.00 0.00 0.00 0.00 0.00 0.00 0.00 0.00 0.00 0.00 0.00 0.00 0.00 0.00 0.00 0.00 0.00
0.02 0.00 0.01 0.01 0.01 0.00 0.00 0.01 0.01 0.01 0.02 0.01 0.00 0.00 0.01 0.02 0.03 0.01 0.00 0.00 0.00 0.00 0.00 0.00 0.00 0.00 0.00 0.00 0.00 0.00 0.00 0.00 0.00 0.00 0.00 0.00 0.00 0.00 0.00 0.00 0.00 0.00 0.00
0.00 0.00 0.00 0.00 0.00 0.00 0.00 0.02 0.03 0.01 0.00 0.00 0.00 0.00 0.00 0.01 0.03 0.01 0.00 0.00 0.00 0.00 0.00 0.00 0.00 0.00 0.00 0.00 0.00 0.00 0.00 0.00 0.00 0.00 0.00 0.00 0.00 0.00 0.00 0.00 0.00 0.00 0.00
0.00 0.00 0.00 0.00 0.00 0.00 0.00 0.00 0.00 0.01 0.01 0.01 0.00 0.00 0.02 0.02 0.03 0.02 0.01 0.00 0.00 0.00 0.00 0.00 0.00 0.00 0.00 0.00 0.00 0.00 0.00 0.00 0.00 0.00 0.00 0.00 0.00 0.00 0.00 0.00 0.00 0.00 0.00
0.00 0.00 0.00 0.00 0.00 0.00 0.00 0.00 0.00 0.00 0.00 0.00 0.00 0.00 0.00 0.00 0.00 0.00 0.00 0.00 0.00 0.00 0.00 0.00 0.00 0.00 0.00 0.00 0.00 0.00 0.00 0.00 0.00 0.00 0.00 0.00 0.00 0.00 0.00 0.00 0.00 0.00 0.00
0.00 0.00 0.00 0.00 0.00 0.00 0.00 0.00 0.00 0.00 0.00 0.00 0.00 0.00 0.00 0.00 0.00 0.00 0.00 0.00 0.00 0.00 0.00 0.00 0.00 0.00 0.00 0.00 0.00 0.00 0.00 0.00 0.00 0.00 0.00 0.00 0.00 0.00 0.00 0.00 0.00 0.00 0.00
0.00 0.00 0.00 0.00 0.00 0.00 0.00 0.00 0.00 0.00 0.00 0.00 0.00 0.00 0.00 0.00 0.00 0.00 0.00 0.00 0.00 0.00 0.00 0.00 0.00 0.00 0.00 0.00 0.00 0.00 0.00 0.00 0.00 0.00 0.00 0.00 0.00 0.00 0.00 0.00 0.00 0.00 0.00
0.00 0.00 0.00 0.00 0.00 0.00 0.00 0.00 0.00 0.00 0.00 0.00 0.00 0.00 0.00 0.00 0.00 0.00 0.00 0.00 0.00 0.00 0.00 0.00 0.00 0.00 0.00 0.00 0.00 0.00 0.00 0.00 0.00 0.00 0.00 0.00 0.00 0.00 0.00 0.00 0.00 0.00 0.00
0.00 0.00 0.00 0.00 0.00 0.00 0.00 0.00 0.00 0.00 0.00 0.00 0.00 0.00 0.00 0.00 0.00 0.00 0.00 0.00 0.00 0.00 0.00 0.00 0.00 0.00 0.00 0.00 0.00 0.00 0.00 0.00 0.00 0.00 0.00 0.00 0.00 0.00 0.00 0.00 0.00 0.00 0.00
0.00 0.00 0.00 0.00 0.00 0.00 0.00 0.01 0.02 0.05 0.07 0.06 0.03 0.00 0.00 0.00 0.00 0.00 0.00 0.00 0.00 0.00 0.00 0.00 0.00 0.00 0.00 0.00 0.00 0.00 0.00 0.00 0.00 0.00 0.00 0.00 0.00 0.00 0.00 0.00 0.00 0.00 0.00
0.00 0.00 0.00 0.03 0.03 0.01 0.00 0.00 0.01 0.02 0.04 0.03 0.01 0.00 0.00 0.00 0.00 0.00 0.00 0.00 0.00 0.00 0.00 0.00 0.00 0.00 0.00 0.00 0.00 0.00 0.00 0.00 0.00 0.00 0.00 0.00 0.00 0.00 0.00 0.00 0.00 0.00 0.00
0.00 0.00 0.00 0.00 0.00 0.00 0.00 0.00 0.00 0.00 0.00 0.00 0.00 0.00 0.00 0.00 0.00 0.00 0.00 0.00 0.00 0.00 0.00 0.00 0.00 0.00 0.00 0.00 0.00 0.00 0.00 0.00 0.00 0.00 0.00 0.00 0.00 0.00 0.00 0.00 0.00 0.00 0.00
0.04 0.02 0.00 0.02 0.00 0.00 0.00 0.00 0.00 0.00 0.00 0.00 0.00 0.00 0.00 0.00 0.00 0.00 0.00 0.00 0.00 0.00 0.00 0.00 0.00 0.00 0.00 0.00 0.00 0.00 0.00 0.00 0.00 0.00 0.00 0.00 0.00 0.00 0.00 0.00 0.00 0.00 0.00
MSLP
1014.02 1014.33 1014.58 1014.98 1015.13 1015.82 1015.81 1016.05 1016.15 1016.23 1016.08 1015.82 1015.77 1015.91 1016.16 1016.22 1016.08 1016.12 1016.23 1016.22 1016.26 1016.16 1015.84 1015.64 1015.22 1014.92 1015.02 1015.06 1014.92 1015.23 1015.93 1016.72 1018.29 1019.73 1020.19 1020.55 1020.70 1020.76 1020.98 1020.99 1021.20 1021.26 1021.36
1014.40 1014.70 1014.90 1015.12 1015.13 1015.54 1015.81 1016.11 1016.25 1016.24 1016.22 1016.12 1016.10 1016.29 1016.46 1016.60 1016.49 1016.57 1016.81 1016.77 1016.78 1016.56 1016.41 1016.30 1016.05 1015.58 1015.68 1015.69 1015.72 1016.00 1016.37 1016.92 1017.88 1019.44 1020.54 1020.99 1021.22 1021.30 1021.36 1021.42 1021.59 1021.66 1021.67
1014.45 1014.93 1015.13 1015.20 1015.34 1015.53 1015.83 1015.98 1016.19 1016.42 1016.42 1016.38 1016.48 1016.65 1016.74 1016.92 1016.94 1017.00 1017.26 1017.37 1017.24 1017.09 1017.04 1016.97 1016.75 1016.44 1016.35 1016.29 1016.42 1016.73 1017.17 1017.71 1018.39 1019.34 1020.46 1021.07 1021.47 1021.67 1021.87 1021.91 1021.96 1021.93 1021.99
1014.24 1014.84 1015.09 1015.09 1015.23 1015.42 1015.73 1016.05 1016.18 1016.44 1016.61 1016.71 1016.70 1016.77 1017.03 1017.24 1017.33 1017.38 1017.54 1017.72 1017.76 1017.73 1017.64 1017.55 1017.20 1017.05 1016.91 1016.96 1017.12 1017.38 1017.70 1018.14 1018.83 1019.55 1020.36 1020.96 1021.35 1021.75 1021.89 1022.06 1022.18 1022.14 1022.23
1014.20 1014.63 1014.84 1014.89 1015.12 1015.39 1015.73 1015.86 1015.97 1016.49 1016.60 1016.65 1016.79 1017.11 1017.35 1017.60 1017.84 1017.79 1017.81 1018.02 1018.02 1018.20 1018.24 1018.07 1017.82 1017.50 1017.26 1017.40 1017.69 1017.96 1018.14 1018.66 1019.30 1019.91 1020.47 1021.00 1021.38 1021.73 1021.80 1021.84 1021.96 1022.11 1022.22
1014.09 1014.43 1014.34 1014.52 1014.77 1015.03 1015.34 1015.70 1016.12 1016.34 1016.40 1016.55 1016.99 1017.28 1017.64 1017.95 1018.07 1018.00 1018.02 1018.15 1018.33 1018.64 1018.72 1018.63 1018.40 1018.27 1018.19 1018.14 1018.15 1018.26 1018.37 1018.86 1019.47 1020.02 1020.52 1020.95 1021.19 1021.33 1021.44 1021.61 1021.69 1021.96 1022.07
1013.67 1014.14 1014.21 1014.44 1014.94 1015.44 1015.82 1015.75 1016.08 1016.27 1016.22 1016.60 1017.10 1017.35 1017.83 1018.11 1018.28 1018.29 1018.27 1018.42 1018.70 1018.79 1018.88 1019.05 1018.96 1018.97 1018.88 1018.77 1018.69 1018.68 1018.97 1019.17 1019.34 1019.70 1020.29 1020.60 1020.89 1020.92 1020.98 1021.27 1021.43 1021.58 1021.56
1013.50 1013.91 1014.19 1014.64 1015.03 1015.38 1015.61 1015.84 1016.09 1016.20 1016.71 1016.90 1017.24 1017.45 1017.90 1018.31 1018.34 1018.46 1018.55 1018.66 1018.95 1019.10 1019.13 1019.27 1019.46 1019.51 1019.48 1019.43 1019.36 1019.52 1019.71 1019.65 1019.59 1019.76 1020.11 1020.43 1020.59 1020.55 1020.64 1020.78 1021.02 1021.36 1021.41
1013.16 1013.61 1014.10 1014.42 1014.96 1015.41 1015.63 1015.84 1016.07 1016.42 1016.72 1016.95 1017.07 1017.66 1017.95 1018.35 1018.53 1018.67 1018.83 1018.99 1019.10 1019.41 1019.46 1019.62 1019.75 1019.87 1019.89 1019.83 1019.89 1020.26 1020.39 1020.34 1020.11 1020.01 1020.15 1020.37 1020.45 1020.46 1020.51 1020.78 1021.23 1021.70 1021.76
1012.80 1013.22 1013.74 1014.23 1014.80 1015.14 1015.28 1015.72 1015.90 1016.10 1016.49 1016.88 1017.15 1017.45 1017.82 1018.19 1018.57 1018.65 1018.86 1019.06 1019.25 1019.59 1019.84 1019.85 1019.96 1020.09 1020.02 1020.07 1020.20 1020.52 1020.77 1020.74 1020.49 1020.58 1020.76 1020.78 1020.79 1020.79 1020.79 1021.06 1021.38 1021.72 1021.85
1012.29 1012.64 1013.34 1013.80 1014.28 1014.70 1015.03 1015.40 1015.77 1016.07 1016.35 1016.76 1016.93 1017.19 1017.58 1017.99 1018.32 1018.56 1018.66 1018.72 1018.87 1019.41 1019.80 1020.10 1020.10 1020.09 1020.14 1020.15 1020.16 1020.40 1020.63 1020.58 1020.74 1020.87 1021.11 1021.36 1021.47 1021.38 1021.27 1021.13 1021.27 1021.41 1021.73
1012.00 1012.59 1013.00 1013.46 1013.95 1014.34 1014.79 1015.17 1015.50 1016.01 1016.35 1016.60 1016.89 1017.31 1017.51 1017.77 1018.00 1018.23 1018.62 1018.49 1018.73 1018.99 1019.69 1019.88 1019.97 1020.01 1020.09 1020.18 1020.22 1020.28 1020.41 1020.53 1020.77 1021.11 1021.32 1021.50 1021.64 1021.56 1021.45 1021.08 1020.96 1021.31 1021.32
1012.08 1012.73 1013.20 1013.42 1013.78 1014.10 1014.66 1015.07 1015.64 1015.78 1016.28 1016.59 1016.86 1017.15 1017.38 1017.67 1017.88 1018.08 1018.46 1018.55 1018.65 1018.97 1019.29 1019.60 1019.85 1019.98 1020.05 1020.14 1020.24 1020.32 1020.38 1020.47 1020.52 1020.92 1021.29 1021.49 1021.14 1021.05 1021.19 1021.14 1021.09 1021.27 1021.36
1012.98 1013.14 1013.47 1013.78 1014.35 1014.42 1014.71 1014.95 1015.43 1015.67 1015.91 1016.29 1016.51 1016.74 1016.93 1017.44 1017.77 1017.97 1018.34 1018.65 1018.74 1018.92 1019.23 1019.58 1019.76 1019.88 1019.97 1020.05 1020.20 1020.25 1020.38 1020.37 1020.53 1020.89 1020.99 1020.80 1020.86 1021.06 1021.26 1021.27 1021.39 1021.43 1021.66
1013.20 1013.53 1013.93 1014.13 1014.61 1015.14 1015.70 1015.93 1015.93 1015.69 1015.58 1015.61 1015.70 1015.96 1016.40 1016.90 1017.12 1017.75 1018.23 1018.59 1018.84 1018.89 1019.26 1019.65 1019.94 1020.05 1020.14 1020.18 1020.22 1020.15 1020.22 1020.27 1020.45 1020.45 1020.76 1021.01 1021.13 1021.16 1021.37 1021.30 1021.31 1021.47 1021.73
1013.41 1013.73 1014.03 1014.39 1014.90 1015.35 1015.81 1016.18 1016.31 1016.12 1015.76 1015.52 1015.39 1015.50 1016.03 1016.10 1016.72 1017.50 1018.08 1018.30 1018.52 1018.81 1019.38 1019.68 1019.73 1019.73 1019.92 1020.02 1020.16 1020.35 1020.19 1020.16 1020.39 1020.47 1020.65 1020.81 1021.29 1021.40 1021.41 1021.23 1021.33 1021.55 1021.70
1013.58 1013.82 1014.03 1014.40 1014.74 1015.16 1015.52 1015.81 1016.01 1016.05 1015.96 1015.73 1015.54 1015.57 1015.67 1015.93 1016.49 1017.05 1017.60 1017.99 1018.21 1018.59 1019.00 1019.19 1019.22 1019.25 1019.29 1019.43 1019.59 1019.96 1019.91 1019.73 1019.80 1020.10 1020.47 1020.61 1020.81 1021.07 1021.18 1021.29 1021.38 1021.47 1021.62
1013.60 1013.78 1014.02 1014.23 1014.46 1014.82 1015.09 1015.42 1015.63 1015.88 1015.97 1015.95 1016.00 1015.99 1016.05 1016.14 1016.40 1016.79 1017.32 1017.74 1018.51 1018.39 1018.54 1018.59 1018.67 1018.65 1018.48 1018.43 1018.52 1019.11 1019.29 1019.36 1019.60 1019.81 1020.14 1020.28 1020.52 1020.70 1020.90 1021.04 1020.97 1021.10 1021.11
1013.45 1013.58 1013.71 1013.86 1014.02 1014.29 1014.64 1014.99 1015.14 1015.36 1015.56 1015.74 1016.16 1016.39 1016.51 1016.67 1016.78 1017.01 1017.16 1017.31 1017.66 1017.88 1017.85 1017.99 1017.91 1017.87 1017.69 1017.49 1017.65 1018.12 1018.51 1018.99 1019.20 1019.42 1019.70 1019.83 1020.01 1020.20 1020.42 1020.48 1020.56 1020.59 1020.75
1013.01 1012.97 1013.23 1013.55 1013.82 1013.98 1014.19 1014.45 1014.59 1014.78 1015.02 1015.32 1015.69 1015.96 1016.61 1016.88 1016.92 1016.96 1017.02 1017.05 1017.08 1017.08 1016.91 1016.96 1016.91 1016.95 1016.90 1016.81 1017.20 1017.59 1018.08 1018.41 1018.68 1018.92 1019.21 1019.33 1019.45 1019.64 1019.97 1020.05 1020.09 1020.14 1020.23
1012.65 1012.79 1012.94 1013.13 1013.32 1013.51 1013.58 1013.72 1013.88 1014.11 1014.23 1014.53 1014.79 1015.05 1015.36 1015.78 1016.00 1016.15 1016.26 1016.41 1016.35 1016.21 1016.07 1016.00 1016.01 1016.02 1015.96 1015.97 1016.43 1016.82 1017.18 1017.59 1017.85 1018.06 1018.39 1018.65 1018.86 1019.18 1019.08 1019.27 1019.46 1019.56 1019.78
1012.40 1012.54 1012.47 1012.51 1012.53 1012.72 1012.71 1012.83 1013.02 1013.23 1013.45 1013.67 1013.96 1014.25 1014.82 1015.27 1015.15 1015.23 1015.29 1015.29 1015.18 1015.16 1015.05 1014.92 1014.79 1014.87 1014.87 1015.05 1015.51 1015.95 1016.40 1016.82 1017.09 1017.41 1017.70 1018.00 1018.35 1018.76 1018.76 1019.02 1019.08 1019.30 1019.45
1011.84 1011.97 1011.81 1011.77 1011.83 1011.94 1012.01 1012.01 1011.98 1012.08 1012.30 1012.46 1012.91 1013.35 1014.08 1014.29 1014.27 1014.12 1014.12 1014.22 1014.24 1014.17 1013.95 1014.10 1014.08 1013.86 1013.90 1014.22 1014.51 1014.96 1015.55 1015.93 1016.36 1016.81 1017.12 1017.39 1017.80 1018.20 1018.41 1018.72 1018.88 1019.07 1019.09
1011.12 1011.27 1011.19 1011.18 1011.29 1011.43 1011.39 1011.10 1010.93 1010.97 1011.06 1010.99 1011.40 1011.96 1012.47 1012.84 1012.93 1012.89 1012.91 1012.97 1013.06 1013.03 1012.66 1012.96 1012.97 1013.32 1013.41 1013.61 1014.09 1014.54 1014.94 1015.48 1015.81 1016.21 1016.35 1016.98 1017.50 1017.84 1018.20 1018.50 1018.65 1018.70 1018.77
1010.68 1010.69 1010.61 1010.62 1010.84 1010.97 1010.79 1010.49 1010.65 1010.54 1010.53 1010.61 1011.02 1011.23 1011.46 1012.04 1012.43 1012.67 1012.78 1012.66 1012.34 1012.36 1011.96 1011.90 1012.08 1012.47 1012.68 1013.03 1013.58 1014.03 1014.81 1015.05 1015.35 1016.15 1016.70 1017.11 1017.45 1017.64 1017.96 1018.22 1018.34 1018.33 1018.31
1010.27 1010.14 1010.20 1010.63 1010.93 1011.08 1011.13 1011.03 1010.98 1010.96 1010.83 1010.91 1011.18 1012.04 1012.30 1012.70 1012.96 1013.09 1013.35 1013.30 1012.39 1012.35 1012.55 1012.69 1012.66 1012.36 1012.86 1013.41 1013.96 1014.84 1015.12 1015.36 1016.05 1016.61 1016.77 1017.08 1017.52 1017.88 1018.12 1018.21 1018.02 1017.92 1017.88
Thickness
5751 5745 5738 5729 5722 5710 5709 5711 5713 5715 5721 5726 5728 5727 5724 5725 5729 5728 5728 5728 5728 5729 5733 5735 5738 5741 5738 5738 5739 5735 5727 5719 5704 5692 5689 5686 5684 5682 5679 5678 5677 5676 5674
5746 5740 5735 5730 5727 5720 5717 5714 5715 5717 5720 5722 5724 5721 5720 5720 5723 5723 5721 5722 5721 5724 5726 5726 5729 5733 5730 5730 5730 5727 5723 5717 5709 5694 5684 5679 5678 5675 5674 5672 5670 5668 5668
5745 5738 5732 5729 5726 5724 5719 5719 5718 5716 5717 5719 5718 5717 5717 5716 5717 5717 5715 5714 5715 5717 5717 5718 5720 5722 5722 5723 5721 5718 5713 5708 5702 5693 5682 5677 5673 5671 5668 5666 5665 5664 5662
5746 5739 5734 5731 5728 5725 5721 5717 5716 5714 5712 5712 5714 5714 5712 5711 5711 5711 5710 5709 5709 5708 5709 5709 5712 5713 5714 5714 5713 5710 5707 5703 5696 5689 5682 5676 5672 5668 5665 5662 5660 5658 5657
5745 5739 5734 5732 5728 5723 5718 5716 5715 5709 5709 5711 5710 5707 5706 5704 5703 5703 5705 5703 5702 5700 5700 5701 5704 5707 5708 5707 5704 5701 5699 5695 5688 5683 5677 5673 5668 5664 5662 5660 5659 5655 5654
5744 5738 5737 5733 5728 5721 5717 5713 5707 5706 5707 5709 5703 5701 5699 5698 5697 5698 5699 5698 5696 5693 5691 5692 5696 5697 5697 5697 5696 5696 5694 5688 5682 5676 5672 5668 5666 5663 5661 5658 5656 5651 5648
5748 5741 5737 5732 5725 5715 5709 5708 5703 5702 5705 5702 5697 5696 5693 5692 5691 5692 5692 5691 5687 5687 5686 5685 5687 5686 5687 5687 5687 5687 5685 5684 5681 5676 5669 5665 5661 5660 5658 5654 5650 5646 5643
5746 5741 5736 5730 5724 5718 5711 5705 5701 5698 5694 5693 5690 5690 5688 5686 5686 5685 5686 5685 5681 5679 5680 5679 5676 5675 5676 5676 5676 5674 5671 5672 5672 5670 5665 5660 5657 5655 5651 5649 5644 5639 5636
5745 5740 5734 5729 5722 5716 5710 5703 5700 5695 5692 5689 5689 5684 5682 5680 5680 5680 5679 5678 5676 5672 5672 5671 5670 5668 5668 5669 5667 5664 5661 5660 5661 5661 5658 5654 5650 5647 5645 5640 5633 5626 5621
5743 5739 5733 5726 5721 5715 5713 5706 5701 5698 5693 5689 5686 5683 5680 5677 5675 5675 5675 5672 5671 5667 5664 5664 5663 5662 5663 5663 5660 5656 5653 5652 5652 5649 5646 5644 5640 5636 5634 5628 5623 5614 5608
5745 5740 5732 5726 5720 5717 5713 5708 5703 5698 5694 5688 5686 5683 5680 5678 5673 5673 5673 5671 5670 5664 5661 5657 5657 5658 5658 5657 5655 5651 5648 5647 5644 5640 5635 5631 5626 5623 5621 5618 5613 5607 5598
5743 5736 5731 5725 5720 5717 5711 5706 5703 5696 5691 5689 5685 5680 5678 5677 5674 5672 5670 5671 5669 5663 5657 5654 5653 5653 5651 5650 5647 5645 5643 5639 5634 5628 5624 5619 5613 5611 5607 5607 5604 5598 5595
5733 5729 5724 5720 5717 5713 5707 5703 5695 5694 5689 5685 5681 5679 5677 5674 5671 5668 5666 5664 5663 5658 5654 5650 5647 5646 5644 5641 5639 5637 5634 5629 5626 5621 5614 5612 5611 5609 5604 5600 5596 5590 5586
5720 5718 5713 5710 5703 5702 5699 5697 5694 5691 5687 5683 5680 5678 5675 5671 5667 5664 5660 5656 5655 5652 5648 5644 5641 5638 5636 5633 5630 5628 5624 5622 5618 5613 5610 5607 5603 5597 5591 5588 5584 5580 5574
5712 5708 5704 5701 5695 5688 5682 5679 5678 5680 5681 5682 5681 5679 5674 5669 5666 5660 5655 5651 5648 5645 5640 5635 5632 5629 5627 5624 5621 5620 5617 5613 5610 5607 5600 5595 5591 5586 5582 5579 5576 5572 5567
5702 5698 5696 5693 5685 5679 5675 5670 5665 5664 5665 5670 5673 5674 5669 5669 5661 5654 5648 5644 5642 5637 5631 5629 5625 5622 5619 5617 5613 5610 5607 5604 5599 5595 5591 5587 5581 5577 5575 5572 5568 5564 5559
5692 5690 5688 5684 5681 5674 5671 5668 5666 5662 5659 5659 5661 5662 5662 5660 5654 5648 5642 5636 5634 5630 5625 5621 5620 5617 5616 5614 5610 5603 5599 5597 5595 5589 5583 5579 5575 5570 5568 5564 5560 5556 5551
5684 5679 5678 5678 5677 5671 5666 5663 5662 5659 5657 5656 5651 5651 5650 5648 5645 5640 5634 5630 5622 5621 5619 5617 5615 5614 5614 5610 5608 5601 5595 5591 5586 5582 5576 5573 5568 5565 5561 5557 5555 5551 5546
5674 5673 5672 5671 5670 5667 5662 5659 5657 5655 5652 5650 5644 5641 5638 5635 5633 5630 5627 5626 5621 5615 5614 5611 5610 5609 5609 5607 5602 5596 5591 5585 5579 5574 5570 5567 5562 5559 5554 5551 5548 5546 5540
5669 5669 5666 5663 5661 5660 5657 5654 5652 5649 5647 5643 5639 5637 5628 5625 5624 5622 5619 5617 5615 5613 5611 5609 5607 5605 5604 5601 5594 5589 5583 5578 5574 5570 5565 5561 5557 5553 5549 5545 5542 5539 5534
5663 5661 5659 5657 5655 5653 5652 5649 5647 5644 5643 5639 5635 5631 5626 5623 5620 5617 5613 5609 5607 5606 5605 5604 5603 5601 5598 5594 5588 5583 5578 5572 5569 5565 5559 5555 5552 5547 5544 5540 5536 5532 5528
5655 5653 5652 5650 5650 5647 5646 5644 5642 5637 5635 5633 5629 5625 5616 5613 5613 5610 5607 5605 5603 5601 5601 5600 5601 5599 5596 5592 5586 5580 5573 5568 5564 5560 5555 5550 5546 5540 5537 5532 5529 5524 5521
5648 5647 5648 5646 5644 5640 5639 5638 5636 5635 5631 5628 5623 5621 5611 5606 5605 5605 5603 5600 5598 5597 5597 5595 5593 5594 5591 5588 5583 5576 5569 5564 5559 5553 5548 5543 5538 5532 5529 5524 5520 5515 5511
5641 5640 5639 5637 5634 5631 5631 5631 5632 5628 5627 5628 5622 5616 5611 5606 5603 5602 5599 5597 5596 5594 5594 5591 5589 5584 5583 5580 5574 5569 5563 5556 5551 5545 5541 5535 5529 5524 5518 5513 5509 5505 5502
5634 5632 5631 5629 5626 5621 5620 5622 5620 5618 5617 5616 5614 5611 5607 5601 5595 5591 5588 5589 5593 5592 5593 5591 5586 5579 5575 5572 5567 5560 5553 5547 5542 5533 5526 5521 5517 5514 5508 5504 5500 5496 5493
5625 5625 5623 5616 5611 5607 5606 5606 5604 5602 5600 5598 5595 5587 5584 5580 5578 5575 5571 5569 5577 5576 5574 5571 5568 5568 5561 5556 5551 5542 5539 5535 5526 5518 5514 5508 5503 5498 5493 5490 5490 5488 5485